Kezdőlap
METAR-TAF:

METAR-TAF

Repülőterek :

L.O. Simenstad Municipal Airport

Osceola, Wisconsin, Amerikai Egyesült Államok

földrajzi szélesség: 45-18-31N, földrajzi hosszúság: 092-41-24W, magasság: 275 m

Jelenlegi meteorológiai megfigyelések

A jelentés 15 perccel ezelõtt készült, 13:15 UTC
Nyugati szél 7 kt
Hőmérséklet 0°C
Páratartalom 59%
Légköri nyomás 1026 hPa
Látótávolság: 16.1 km
Derült ég

METAR: KOEO 041315Z AUTO 28007KT 10SM CLR 00/M07 A3031 RMK AO2 T00001071

Idő: 07:30 (13:30 UTC)


TAF: hiányzik

Meteorológiai megfigyelések és előrejelzések több, mint 4000 repülőtéren (METAR és TAF jelentéseket).

A térképen piros és sárga pontok jelzik az elérhető meteorológiai állomásokat.

Mozgassa az egeret a pont fölött, hogy megjelenjen az állomás neve.

Azután kattintson az időjárási megfigyelések és előrejelzések megtekintéséhez.

A térkép megváltoztatása: kattintson a fekete keresztel jelölt zöld gombra ráközelítéshez, a vonallal jelölt zöld gombra távolításhoz, vagy a zöld nyilakra a szomszédos térképek eléréséhez.


METAR-TAF: